| time (UTC) | temp F | wind direction | speed knots | gust knots | rain 1hr in | rain 24hr in | rain mn in | humidity % | barometer mb |
| 20260504050002 | 63 | 354 | 0.0 | 0.0 | 0.00 | 0.00 | 0.00 | 77 | 1019.5 |
| 20260504044504 | 63 | 264 | 0.0 | 0.0 | 0.00 | 0.00 | 0.00 | 76 | 1019.5 |
| 20260504043106 | 64 | 339 | 0.0 | 0.0 | 0.00 | 0.00 | 0.00 | 74 | 1019.5 |
| 20260504041600 | 64 | 1 | 0.0 | 0.0 | 0.00 | 0.00 | 0.00 | 74 | 1019.5 |
| 20260504040105 | 64 | 3 | 0.0 | 0.0 | 0.00 | 0.00 | 0.00 | 72 | 1019.3 |
| 20260504034616 | 65 | 13 | 0.0 | 0.9 | 0.00 | 0.00 | 0.00 | 72 | 1019.3 |
| 20260504033104 | 65 | 13 | 0.0 | 3.5 | 0.00 | 0.00 | 0.00 | 71 | 1019.3 |
| 20260504031604 | 66 | 354 | 0.0 | 1.7 | 0.00 | 0.00 | 0.00 | 71 | 1019.3 |
| 20260504030058 | 66 | 1 | 0.0 | 1.7 | 0.00 | 0.00 | 0.00 | 68 | 1019.4 |
| 20260504024558 | 67 | 4 | 0.9 | 6.1 | 0.00 | 0.00 | 0.00 | 67 | 1019.5 |
| 20260504023056 | 67 | 9 | 1.7 | 5.2 | 0.00 | 0.00 | 0.00 | 66 | 1019.3 |
| 20260504021557 | 67 | 342 | 0.0 | 2.6 | 0.00 | 0.00 | 0.00 | 66 | 1019.1 |
| 20260504020105 | 67 | 296 | 0.0 | 6.1 | 0.00 | 0.00 | 0.00 | 66 | 1019.0 |
| 20260504014557 | 66 | 23 | 0.9 | 1.7 | 0.00 | 0.00 | 0.00 | 69 | 1018.8 |
| 20260504013058 | 67 | 249 | 0.0 | 0.0 | 0.00 | 0.00 | 0.00 | 69 | 1018.5 |
| 20260504011554 | 69 | 248 | 0.0 | 1.7 | 0.00 | 0.00 | 0.00 | 62 | 1018.3 |
| 20260504010053 | 70 | 254 | 0.0 | 1.7 | 0.00 | 0.00 | 0.00 | 61 | 1018.2 |
| 20260504004553 | 69 | 244 | 1.7 | 7.0 | 0.00 | 0.00 | 0.00 | 63 | 1018.1 |
| 20260504003051 | 70 | 247 | 0.9 | 6.1 | 0.00 | 0.00 | 0.00 | 63 | 1018.1 |
| 20260504001556 | 70 | 238 | 1.7 | 5.2 | 0.00 | 0.00 | 0.00 | 62 | 1018.0 |
| 20260504000053 | 71 | 269 | 3.5 | 7.0 | 0.00 | 0.00 | 0.00 | 60 | 1017.9 |
| 20260503234549 | 72 | 207 | 3.5 | 7.8 | 0.00 | 0.00 | 0.00 | 58 | 1018.0 |
| 20260503233049 | 72 | 188 | 2.6 | 7.8 | 0.00 | 0.00 | 0.00 | 55 | 1018.1 |
| 20260503231548 | 73 | 262 | 0.9 | 5.2 | 0.00 | 0.00 | 0.00 | 55 | 1018.0 |
| 20260503224547 | 73 | 224 | 4.3 | 8.7 | 0.00 | 0.00 | 0.00 | 52 | 1018.0 |
| 20260503223046 | 73 | 207 | 2.6 | 8.7 | 0.00 | 0.00 | 0.00 | 51 | 1018.1 |
| 20260503221545 | 74 | 226 | 3.5 | 8.7 | 0.00 | 0.00 | 0.00 | 48 | 1018.0 |
| 20260503220045 | 73 | 178 | 5.2 | 9.6 | 0.00 | 0.00 | 0.00 | 44 | 1018.1 |
| 20260503214544 | 73 | 219 | 4.3 | 8.7 | 0.00 | 0.00 | 0.00 | 42 | 1018.3 |
| 20260503213041 | 73 | 188 | 2.6 | 12.2 | 0.00 | 0.00 | 0.00 | 41 | 1018.4 |
| 20260503211553 | 73 | 197 | 2.6 | 9.6 | 0.00 | 0.00 | 0.00 | 43 | 1018.6 |
| 20260503210037 | 73 | 248 | 3.5 | 10.4 | 0.00 | 0.00 | 0.00 | 47 | 1018.8 |
| 20260503204537 | 73 | 244 | 4.3 | 8.7 | 0.00 | 0.00 | 0.00 | 46 | 1018.9 |
| 20260503203043 | 73 | 212 | 3.5 | 10.4 | 0.00 | 0.00 | 0.00 | 48 | 1019.0 |
| 20260503201534 | 73 | 250 | 5.2 | 13.0 | 0.00 | 0.00 | 0.00 | 42 | 1019.2 |
| 20260503200046 | 74 | 199 | 7.0 | 10.4 | 0.00 | 0.00 | 0.00 | 42 | 1019.3 |
| 20260503194532 | 76 | 230 | 6.1 | 10.4 | 0.00 | 0.00 | 0.00 | 41 | 1019.5 |
| 20260503193035 | 77 | 25 | 0.9 | 7.8 | 0.00 | 0.00 | 0.00 | 35 | 1020.0 |
| 20260503191531 | 76 | 2 | 0.0 | 3.5 | 0.00 | 0.00 | 0.00 | 33 | 1020.1 |
| 20260503190032 | 75 | 343 | 5.2 | 10.4 | 0.00 | 0.00 | 0.00 | 31 | 1020.5 |
| 20260503184535 | 75 | 136 | 1.7 | 6.1 | 0.00 | 0.00 | 0.00 | 36 | 1020.6 |
| 20260503183025 | 76 | 44 | 1.7 | 5.2 | 0.00 | 0.00 | 0.00 | 36 | 1020.8 |
| 20260503181522 | 75 | 41 | 0.0 | 3.5 | 0.00 | 0.00 | 0.00 | 35 | 1021.0 |
| 20260503180038 | 74 | 4 | 2.6 | 7.0 | 0.00 | 0.00 | 0.00 | 34 | 1021.2 |
| 20260503174524 | 74 | 45 | 1.7 | 8.7 | 0.00 | 0.00 | 0.00 | 34 | 1021.2 |
| 20260503173024 | 73 | 160 | 0.0 | 7.0 | 0.00 | 0.00 | 0.00 | 36 | 1021.2 |
| 20260503171516 | 73 | 133 | 1.7 | 9.6 | 0.00 | 0.00 | 0.00 | 35 | 1021.5 |
| 20260503150110 | 70 | 24 | 1.7 | 6.1 | 0.00 | 0.00 | 0.00 | 49 | 1022.4 |
| 20260503081517 | 57 | 51 | 0.9 | 4.3 | 0.00 | 0.85 | 0.00 | 72 | 1019.7 |
| 20260503071602 | 58 | 42 | 1.7 | 4.3 | 0.00 | 1.04 | 0.00 | 70 | 1019.4 |
| 20260503054546 | 60 | 25 | 1.7 | 4.3 | 0.00 | 1.37 | 0.00 | 65 | 1019.2 |
| 20260503053044 | 60 | 35 | 0.9 | 2.6 | 0.00 | 1.37 | 0.00 | 66 | 1019.1 |